{"data":{"norad_id":53536,"intl_designator":"2022-101K","name":"STARLINK-4053","alt_names":[],"object_type":"PAYLOAD","status":"ACTIVE","operator":null,"country":"US","launch_date":"2022-08-19","launch_site_code":"AFETR","launch_vehicle":null,"mission":null,"orbit_class":"UNKNOWN","rcs_meters":null,"size_class":null,"mass_kg":null,"dimensions":null,"purposes":["comms"],"wikipedia_slug":null,"has_3d_model":false,"image_url":null,"decayed_at":null,"tle_current":{"epoch":"2026-09-20T12:54:29.909952Z","epoch_age_seconds":75751,"freshness":"FRESH","line1":"1 53536U 22101K   26263.53784618  .00000431  00000+0  25642-4 0  9999","line2":"2 53536  53.1606 255.6029 0001273  90.9282 269.1865 15.31704593225900","mean_motion":15.31704593,"eccentricity":0.0001273,"inclination_deg":53.1606,"raan_deg":255.6029,"arg_perigee_deg":90.9282,"mean_anomaly_deg":269.1865,"bstar":2.5642e-5,"rev_number":22590,"period_min":94.012906051265,"perigee_km":469.85444346729,"apogee_km":471.59816406443,"semimajor_km":6848.8633037659,"source":"CELESTRAK","updated_at":"2026-09-21T09:00:32.900437Z"}}}